This is the latest recevied weather packets stored in our database for station/object N5PRN. If no packets are shown the sender has not sent any weather packets the latest 10 day(s).
| Time | Temp. | Humidity | Pressure | Rain* | Wind** | Luminosity | Snow |
|---|---|---|---|---|---|---|---|
| 1777929803 | 24.44° C | 56% | 1012.9 hPa | 0 mm | - | 171 W/m² | - |
| 1777929501 | 25.56° C | 56% | 1012.8 hPa | 0 mm | - | 152 W/m² | - |
| 1777929197 | 26.67° C | 54% | 1012.9 hPa | 0 mm | - | 573 W/m² | - |
| 1777928895 | 26.11° C | 54% | 1012.8 hPa | 0 mm | - | 672 W/m² | - |
| 1777928592 | 25.56° C | 54% | 1013.2 hPa | 0 mm | - | 657 W/m² | - |
| 1777928289 | 26.11° C | 54% | 1013.1 hPa | 0 mm | - | 616 W/m² | - |
| 1777927986 | 26.11° C | 55% | 1013 hPa | 0 mm | - | 548 W/m² | - |
| 1777927684 | 25.56° C | 56% | 1013.3 hPa | 0 mm | - | 741 W/m² | - |
| 1777927376 | 25.56° C | 54% | 1013.4 hPa | 0 mm | - | 643 W/m² | - |
| 1777927076 | 25.56° C | 53% | 1013.2 hPa | 0 mm | - | 613 W/m² | - |
| 1777926773 | 25.56° C | 54% | 1013.3 hPa | 0 mm | - | 745 W/m² | - |
| 1777926473 | 25.56° C | 57% | 1013.5 hPa | 0 mm | - | 780 W/m² | - |
| 1777926170 | 25.56° C | 55% | 1013.5 hPa | 0 mm | - | 767 W/m² | - |
| 1777925867 | 26.11° C | 53% | 1013.8 hPa | 0 mm | - | 683 W/m² | - |
| 1777925564 | 25.56° C | 54% | 1014 hPa | 0 mm | - | 701 W/m² | - |
| 1777925262 | 25.56° C | 59% | 1014 hPa | 0 mm | - | 734 W/m² | - |
| 1777924958 | 25° C | 57% | 1014.2 hPa | 0 mm | - | 835 W/m² | - |
| 1777924655 | 25° C | 54% | 1014.2 hPa | 0 mm | - | 834 W/m² | - |
| 1777924350 | 25.56° C | 54% | 1014.4 hPa | 0 mm | - | 660 W/m² | - |
| 1777924048 | 25° C | 56% | 1014.4 hPa | 0 mm | - | 636 W/m² | - |
| 1777923744 | 25° C | 55% | 1014.5 hPa | 0 mm | - | 295 W/m² | - |
| 1777923440 | 25.56° C | 52% | 1014.4 hPa | 0 mm | - | 346 W/m² | - |
| 1777923138 | 25.56° C | 51% | 1014.5 hPa | 0 mm | - | 861 W/m² | - |
| 1777922836 | 25° C | 53% | 1014.6 hPa | 0 mm | - | 808 W/m² | - |
| 1777922534 | 24.44° C | 56% | 1014.7 hPa | 0 mm | - | 836 W/m² | - |
* Rain latest hour (hover to see other rain measurements)
** Current wind speed in m/s (hover to see current wind gust speed)